sat.trackr.live / text

‹ back to catalog

STARLINK-34868

NORAD 65648 · 2025-210AC

PAYLOAD ACTIVE UNKNOWN

§ Identity

Operator
Country
US
Launch date
2025-09-18
Launch site
AFETR
Launch vehicle
Mass (kg)
RCS (m²)

Purposes: comms

External: N2YO · Heavens-Above · Gunter

§ Orbital elements

Epoch: 2026-09-20T22:09:12.758112Z

Period
93.85 min
Inclination
53.1622°
Eccentricity
0.0001158
Mean motion
15.34410490 rev/d
Perigee alt
461.9 km
Apogee alt
463.5 km
Semi-major
6,840.8 km
B*
6.4712e-4
RAAN
115.8732°
Arg perigee
125.5582°
Mean anomaly
234.5529°
Rev number
5,768

§ Raw data

STARLINK-348681 65648U 25210AC  26263.92306433  .00021558  00000+0  64712-3 0  99912 65648  53.1622 115.8732 0001158 125.5582 234.5529 15.34410490 57687

JSON: /api/v1/satellites/65648 · /tle

For live sub-satellite position, see the globe view (requires WebGL).

§ Visibility from observer

Set your observer location to see the next 7 days of passes ≥ 10°. The values pass through the URL so the page stays shareable.

No JS? Fill the form by hand. The geolocation button needs JavaScript.